Tracking 28766 objects as of 13-Apr-2024
HD Live streaming from Space Station
objects crossing your sky now

GGSE 3 DEB

Track GGSE 3 DEB now!
10-day predictions


NORAD ID: 44043
Int'l Code: 1965-016L
Perigee: 877.3 km
Apogee: 908.3 km
Inclination: 70.1 °
Period: 102.7 minutes
Semi major axis: 7263 km
RCS: Unknown
Launch date: March 9, 1965
Source: United States (US)
Launch site: AIR FORCE WESTERN TEST RANGE (AFWTR)

Note: This is SATELLITE DEBRIS
Your satellite tracking list
Your tracking list is empty




NASA's NSSDC Master Catalog

Two Line Element Set (TLE):
1 44043U 65016L   24103.51413840  .00000876  00000-0  60406-3 0  9999
2 44043  70.0765 218.7229 0021277 280.9992  78.8724 14.02352152264116
Source of the keplerian elements: AFSPC